sat.trackr.live / text

‹ back to catalog

STARLINK-35252

NORAD 65850 · 2025-221AD

PAYLOAD ACTIVE UNKNOWN

§ Identity

Operator
Country
US
Launch date
2025-09-29
Launch site
AFWTR
Launch vehicle
Mass (kg)
RCS (m²)

Purposes: comms

External: N2YO · Heavens-Above · Gunter

§ Orbital elements

Epoch: 2026-05-25T03:33:57.589344Z

Period
94.10 min
Inclination
53.1574°
Eccentricity
0.0000959
Mean motion
15.30230842 rev/d
Perigee alt
474.5 km
Apogee alt
475.8 km
Semi-major
6,853.3 km
B*
1.5028e-3
RAAN
93.6208°
Arg perigee
80.8016°
Mean anomaly
279.3093°
Rev number
3,778

§ Raw data

STARLINK-352521 65850U 25221AD  26145.14858321  .00044458  00000+0  15028-2 0  99982 65850  53.1574  93.6208 0000959  80.8016 279.3093 15.30230842 37781

JSON: /api/v1/satellites/65850 · /tle

For live sub-satellite position, see the globe view (requires WebGL).

§ Visibility from observer

Set your observer location to see the next 7 days of passes ≥ 10°. The values pass through the URL so the page stays shareable.

No JS? Fill the form by hand. The geolocation button needs JavaScript.